Weather History for KHIE - October, 2011

Change the Weather History Date:

Wednesday, October 12, 2011

  Actual Average Record
Temperature  
Mean Temperature 49 °F -  
Max Temperature 64 °F 56 °F 73 °F (2001)
Min Temperature 35 °F 30 °F 19 °F (1996)
Degree Days  
Heating Degree Days 16    
Moisture  
Dew Point 39 °F    
Average Humidity 73    
Maximum Humidity 97    
Minimum Humidity 43    
Precipitation  
Precipitation 0.00 in - - ()
Sea Level Pressure  
Sea Level Pressure 30.20 in    
Wind  
Wind Speed 3 mph (SSE)    
Max Wind Speed 13 mph    
Max Gust Speed 25 mph    
Visibility 10 miles    
Events      
Averages and records for this station are not official NWS values.
T = Trace of Precipitation, MM = Missing Value Source: NWS Daily Summary

Daily Weather History Graph

Daily Weather History Graph

Search for Another Location

Airport or City:

Trip Planner

Search our weather history database for the weather conditions in past years. The results will help you decide how hot, cold, wet, or windy it might be!

Date:

Astronomy

Oct. 12, 2011 Rise Set
Actual Time 6:57 AM EDT 6:07 PM EDT
Civil Twilight 6:27 AM EDT 6:36 PM EDT
Nautical Twilight 5:54 AM EDT 7:10 PM EDT
Astronomical Twilight 5:20 AM EDT 7:43 PM EDT
Moon 6:03 PM EDT (10/12) 7:32 AM EDT (10/12)
Length of Visible Light 12h 08m
Length of Day
11h 10m
Full, 100% of the Moon is Illuminated
Oct 12
Full
Oct 19
Last Quarter
Oct 26
New
Nov 2
First Quarter
Nov 10
Full

Hourly Weather History & Observations

Time (EDT) Temp. Dew Point Humidity Pressure Visibility Wind Dir Wind Speed Gust Speed Precip Events Conditions
12:52 AM 36.0 °F 35.1 °F 97% 30.25 in 10.0 mi Calm Calm - N/A   Clear
1:52 AM 37.0 °F 35.1 °F 93% 30.25 in 10.0 mi Calm Calm - N/A   Clear
2:52 AM 37.0 °F 36.0 °F 96% 30.24 in 10.0 mi Calm Calm - N/A   Clear
3:52 AM 37.9 °F 36.0 °F 93% 30.23 in 10.0 mi Calm Calm - N/A   Clear
4:52 AM 36.0 °F 35.1 °F 97% 30.24 in 10.0 mi Calm Calm - N/A   Clear
5:52 AM 36.0 °F 35.1 °F 97% 30.25 in 10.0 mi Calm Calm - N/A   Clear
6:52 AM 35.1 °F 34.0 °F 96% 30.26 in 10.0 mi Calm Calm - N/A   Clear
7:52 AM 37.9 °F 37.0 °F 97% 30.27 in 10.0 mi Calm Calm - N/A   Clear
8:52 AM 42.1 °F 39.9 °F 92% 30.27 in 10.0 mi Calm Calm - N/A   Clear
9:52 AM 50.0 °F 45.0 °F 83% 30.26 in 10.0 mi Calm Calm - N/A   Clear
10:52 AM 57.9 °F 45.0 °F 62% 30.24 in 10.0 mi Calm Calm - N/A   Clear
11:52 AM 62.1 °F 45.0 °F 53% 30.21 in 10.0 mi Variable 6.9 mph - N/A   Clear
12:52 PM 63.0 °F 39.9 °F 43% 30.19 in 10.0 mi SSE 8.1 mph - N/A   Clear
1:52 PM 61.0 °F 39.9 °F 46% 30.17 in 10.0 mi SSE 11.5 mph - N/A   Clear
2:52 PM 60.1 °F 39.0 °F 46% 30.17 in 10.0 mi SSE 9.2 mph - N/A   Clear
3:52 PM 57.9 °F 39.9 °F 51% 30.17 in 10.0 mi South 12.7 mph 20.7 mph N/A   Clear
4:52 PM 55.9 °F 39.9 °F 55% 30.16 in 9.0 mi South 8.1 mph 23.0 mph N/A   Clear
5:52 PM 53.1 °F 39.9 °F 61% 30.17 in 10.0 mi SSE 11.5 mph 18.4 mph N/A   Clear
6:52 PM 53.1 °F 39.9 °F 61% 30.17 in 10.0 mi South 11.5 mph 21.9 mph N/A   Clear
7:52 PM 53.1 °F 42.1 °F 66% 30.16 in 10.0 mi South 10.4 mph 23.0 mph N/A   Clear
8:52 PM 52.0 °F 41.0 °F 66% 30.16 in 10.0 mi South 10.4 mph 25.3 mph N/A   Clear
9:52 PM 52.0 °F 41.0 °F 66% 30.14 in 10.0 mi Calm Calm - N/A   Clear
10:52 PM 52.0 °F 41.0 °F 66% 30.12 in 10.0 mi Calm Calm - N/A   Clear
11:52 PM 51.1 °F 42.1 °F 71% 30.10 in 10.0 mi Calm Calm - N/A   Clear